GW6508 Weather Reports


time (UTC)temp
C
wind
direction
speed
KPH
gust
KPH
rain 1hr
cm
rain 24hr
cm
rain mn
cm
humidity
%
barometer
mb
20260506201308 13 90 1.6 3.2 0.00 0.00 0.00 60 1012.9
20260506200305 14 105 1.6 3.2 0.00 0.00 0.00 59 1012.9
20260506195306 14 45 1.6 3.2 0.00 0.00 0.00 59 1012.8
20260506194302 15 48 1.6 3.2 0.00 0.00 0.00 58 1012.9
20260506193300 15 52 1.6 3.2 0.00 0.00 0.00 57 1012.8
20260506192258 15 59 1.6 3.2 0.00 0.00 0.00 55 1012.7
20260506191256 16 68 1.6 4.8 0.00 0.00 0.00 53 1012.6
20260506190253 16 152 3.2 6.4 0.00 0.00 0.00 51 1012.7
20260506185312 16 143 3.2 6.4 0.00 0.00 0.00 51 1012.6
20260506184250 17 149 3.2 6.4 0.00 0.00 0.00 49 1012.6
20260506183248 17 146 3.2 6.4 0.00 0.00 0.00 49 1012.6
20260506182245 17 120 1.6 4.8 0.00 0.00 0.00 46 1012.6
20260506181243 17 111 1.6 4.8 0.00 0.00 0.00 46 1012.6
20260506180242 17 154 3.2 4.8 0.00 0.00 0.00 46 1012.6
20260506175240 17 106 1.6 6.4 0.00 0.00 0.00 44 1012.6
20260506174238 17 146 1.6 6.4 0.00 0.00 0.00 45 1012.8
20260506173235 17 150 3.2 4.8 0.00 0.00 0.00 45 1012.7
20260506172234 18 180 3.2 6.4 0.00 0.00 0.00 45 1012.7
20260506171232 18 159 1.6 6.4 0.00 0.00 0.00 45 1012.8
20260506170229 18 184 3.2 6.4 0.00 0.00 0.00 47 1012.8
20260506165228 18 178 3.2 6.4 0.00 0.00 0.00 47 1012.8
20260506164306 17 187 3.2 4.8 0.00 0.00 0.00 47 1012.9
20260506163223 17 198 3.2 4.8 0.00 0.00 0.00 47 1013.0
20260506162221 17 234 3.2 8.0 0.00 0.00 0.00 46 1013.2
20260506161220 17 280 3.2 8.0 0.00 0.00 0.00 48 1013.2
20260506160218 17 334 4.8 6.4 0.00 0.00 0.00 48 1013.3
20260506155215 17 348 4.8 8.0 0.00 0.00 0.00 48 1013.3
20260506154234 17 351 4.8 6.4 0.00 0.00 0.00 48 1013.4
20260506153212 17 351 4.8 6.4 0.00 0.00 0.00 47 1013.4
20260506152209 17 347 4.8 8.0 0.00 0.00 0.00 48 1013.5
20260506151228 17 358 6.4 8.0 0.00 0.00 0.00 47 1013.6
20260506150225 17 352 4.8 8.0 0.00 0.00 0.00 47 1013.9
20260506145204 17 341 4.8 8.0 0.00 0.00 0.00 47 1013.9
20260506144203 17 343 4.8 8.0 0.00 0.00 0.00 49 1014.1
20260506143221 17 351 4.8 8.0 0.00 0.00 0.00 48 1014.1
20260506142157 17 354 4.8 6.4 0.00 0.00 0.00 49 1014.2
20260506141155 17 356 4.8 9.7 0.00 0.00 0.00 49 1014.3
20260506140155 17 354 4.8 8.0 0.00 0.00 0.00 49 1014.3
20260506135152 16 358 6.4 8.0 0.00 0.00 0.00 50 1014.6
20260506134150 16 339 4.8 8.0 0.00 0.00 0.00 50 1014.6
20260506133148 16 333 3.2 6.4 0.00 0.00 0.00 50 1014.6
20260506132146 16 344 4.8 6.4 0.00 0.00 0.00 52 1014.7
20260506131144 16 315 3.2 8.0 0.00 0.00 0.00 53 1014.7
20260506130202 15 333 4.8 8.0 0.00 0.00 0.00 53 1015.0
20260506125140 15 318 4.8 8.0 0.00 0.00 0.00 54 1014.8
20260506124158 15 357 4.8 6.4 0.00 0.00 0.00 54 1015.0
20260506123144 15 344 4.8 8.0 0.00 0.00 0.00 54 1015.0
20260506122134 14 348 4.8 8.0 0.00 0.00 0.00 56 1015.4
20260506121132 14 348 4.8 6.4 0.00 0.00 0.00 56 1015.4
20260506120129 14 358 4.8 8.0 0.00 0.00 0.00 56 1015.5
20260506115128 14 353 4.8 8.0 0.00 0.00 0.00 58 1015.5
20260506114125 13 315 3.2 6.4 0.00 0.00 0.00 58 1015.7
20260506113124 13 348 4.8 6.4 0.00 0.00 0.00 59 1015.8
20260506112121 13 262 3.2 9.7 0.00 0.00 0.00 60 1015.8
20260506111120 13 318 4.8 8.0 0.00 0.00 0.00 61 1015.9
20260506110118 12 340 3.2 6.4 0.00 0.00 0.00 61 1015.9
20260506105115 12 355 4.8 6.4 0.00 0.00 0.00 61 1015.9
20260506104114 12 352 3.2 6.4 0.00 0.00 0.00 62 1016.0
20260506103112 12 355 3.2 6.4 0.00 0.00 0.00 63 1016.0
20260506102129 12 352 3.2 6.4 0.00 0.00 0.00 64 1016.1
20260506101149 11 355 3.2 6.4 0.00 0.00 0.00 64 1016.1
20260506100106 11 1 4.8 6.4 0.00 0.00 0.00 65 1016.0
20260506095103 11 1 4.8 9.7 0.00 0.00 0.00 64 1016.1
20260506094121 11 1 4.8 8.0 0.00 0.00 0.00 69 1016.1
20260506093059 10 1 3.2 6.4 0.00 0.00 0.00 71 1016.2
20260506092058 10 6 3.2 9.7 0.00 0.00 0.00 71 1016.0
20260506091116 10 1 3.2 6.4 0.00 0.00 0.00 74 1016.2
20260506090053 9 347 3.2 6.4 0.00 0.00 0.00 75 1016.1
20260506085053 9 358 3.2 6.4 0.00 0.00 0.00 76 1016.1
20260506084110 8 3 3.2 6.4 0.00 0.00 0.00 77 1016.1
20260506083047 8 3 3.2 6.4 0.00 0.00 0.00 77 1016.2
20260506082045 8 1 3.2 6.4 0.00 0.00 0.00 77 1016.2
20260506081043 7 5 3.2 6.4 0.00 0.00 0.00 78 1016.3
20260506073036 6 221 3.2 4.8 0.00 0.00 0.00 80 1016.4
20260506072054 6 351 3.2 4.8 0.00 0.00 0.00 80 1016.4
20260506071032 6 341 3.2 4.8 0.00 0.00 0.00 80 1016.3
20260506062021 5 239 3.2 3.2 0.00 0.00 0.00 80 1016.0
20260506061020 5 225 1.6 3.2 0.00 0.00 0.00 80 1015.9
20260506051008 5 211 3.2 3.2 0.00 0.00 0.00 80 1015.5
20260506045004 5 201 1.6 3.2 0.00 0.00 0.00 79 1015.6
20260506044002 5 200 1.6 3.2 0.00 0.00 0.00 79 1015.5
20260506042959 5 204 1.6 3.2 0.00 0.00 0.00 79 1015.6
20260506041957 5 270 1.6 3.2 0.00 0.00 0.00 79 1015.6
20260506040956 5 288 1.6 3.2 0.00 0.00 0.00 79 1015.7
20260506035953 5 343 3.2 3.2 0.00 0.00 0.00 78 1015.8
20260506034952 5 332 1.6 3.2 0.00 0.00 0.00 78 1015.7
20260506033949 5 334 1.6 3.2 0.00 0.00 0.00 78 1015.7
20260506032948 6 326 1.6 3.2 0.00 0.00 0.00 78 1015.7
20260506031946 6 341 1.6 3.2 0.00 0.00 0.00 78 1015.7
20260506030943 6 345 3.2 4.8 0.00 0.00 0.00 78 1015.9
20260506030023 6 334 1.6 3.2 0.00 0.00 0.00 78 1015.7
20260506025000 6 340 3.2 3.2 0.00 0.00 0.00 78 1015.7
20260506023958 6 342 3.2 3.2 0.00 0.00 0.00 77 1015.7
20260506022935 6 342 1.6 3.2 0.00 0.00 0.00 77 1015.7
20260506021934 6 333 1.6 3.2 0.00 0.00 0.00 78 1015.7
20260506020931 6 342 1.6 3.2 0.00 0.00 0.00 77 1015.7
20260506015930 6 343 1.6 3.2 0.00 0.00 0.00 77 1015.7
20260506014928 7 352 1.6 3.2 0.00 0.00 0.00 77 1015.8
20260506013925 7 345 1.6 3.2 0.00 0.00 0.00 77 1015.9
20260506012924 7 341 1.6 3.2 0.00 0.00 0.00 77 1015.8
20260506011921 7 341 1.6 3.2 0.00 0.00 0.00 77 1016.0
20260506010919 7 344 1.6 3.2 0.00 0.00 0.00 77 1015.9
20260506005918 7 350 3.2 3.2 0.00 0.00 0.00 77 1016.2
20260506004915 7 348 3.2 3.2 0.00 0.00 0.00 77 1016.1
20260506003914 7 352 3.2 3.2 0.00 0.00 0.00 77 1016.2
20260506002912 7 351 1.6 3.2 0.00 0.00 0.00 77 1016.2
20260506001909 7 350 1.6 3.2 0.00 0.00 0.00 77 1016.2
20260506000908 7 350 3.2 3.2 0.00 0.00 0.00 77 1016.0
20260505235905 7 355 1.6 3.2 0.00 0.00 0.00 77 1016.1
20260505234904 8 346 3.2 4.8 0.00 0.00 0.00 76 1016.1
20260505233901 8 345 1.6 4.8 0.00 0.00 0.00 76 1016.1
20260505232859 8 343 3.2 3.2 0.00 0.00 0.00 76 1016.0
20260505231857 8 343 3.2 3.2 0.00 0.00 0.00 76 1016.3
20260505230856 8 347 3.2 4.8 0.00 0.00 0.00 76 1016.1
20260505225914 8 349 3.2 3.2 0.00 0.00 0.00 76 1016.2
20260505224852 8 345 3.2 3.2 0.00 0.00 0.00 76 1016.3
20260505223849 8 345 3.2 3.2 0.00 0.00 0.00 75 1016.4
20260505222907 8 348 3.2 3.2 0.00 0.00 0.00 75 1016.4
20260505221905 8 346 3.2 3.2 0.00 0.00 0.00 75 1016.4
20260505220844 8 347 3.2 3.2 0.00 0.00 0.00 74 1016.2
20260505215902 9 346 3.2 3.2 0.00 0.00 0.00 74 1016.3
20260505214839 9 346 3.2 4.8 0.00 0.00 0.00 73 1016.3
20260505213838 9 5 3.2 4.8 0.00 0.00 0.00 73 1016.3
20260505212836 9 2 3.2 6.4 0.00 0.00 0.00 73 1016.2
20260505211835 10 4 3.2 6.4 0.00 0.00 0.00 73 1016.3
20260505210831 10 6 4.8 6.4 0.00 0.00 0.00 73 1016.3
20260505205830 10 4 3.2 6.4 0.00 0.00 0.00 72 1016.2
20260505204827 10 2 3.2 6.4 0.00 0.00 0.00 72 1016.2
20260505203846 10 2 3.2 4.8 0.00 0.00 0.00 72 1016.1
20260505202823 10 4 3.2 6.4 0.00 0.00 0.00 71 1016.1
20260505201822 10 3 3.2 6.4 0.00 0.00 0.00 70 1015.9